User: anonymous   Login
Location: Unspecified
(0.0000°N, 0.0000°E)
Time: 21:45:52
(UTC+00:00)
Language:

MetOp-A - Orbit

View from above orbital plane
View from above orbital plane
View from above satellite
View from above satellite

Ground track
Ground track

The orbit data is extracted from the following two-line orbital elements,

1 29499U 06044A   17083.90289884 +.00000007 +00000-0 +23179-4 0  9997
2 29499 098.6884 144.8936 0002084 084.0710 003.3764 14.21493269540987
Epoch (UTC): 24 March 2017 21:40:10
Eccentricity: 0.0002084
inclination: 98.6884°
perigee height: 819 km
apogee height: 822 km
right ascension of ascending node: 144.8936°
argument of perigee: 84.0710°
revolutions per day: 14.21493269
mean anomaly at epoch: 3.3764°
orbit number at epoch: 54098

The dashed part of the orbit path shows where the satellite is in the earth's shadow,  

DLR